Weather in Gridinskaya

Russia / Arkhangel'skaya Oblast'     62°28′11″N   43°56′18″E
temp.,
°C
wind,
m/s
gust,
m/s
humid.,
%
clouds,
%
prec.,
mm/h
press.,
hPa
HPBL,
m
21 june, mon
mon2100:00+15se26799 0.0 1016125
03:00+14sse229339 0.0 101626
06:00+22w265957 0.0 1015266
09:00+28w35427 0.0 10151007
12:00+30w463659 0.0 10162161
15:00+30nw3536100 0.0 10161928
18:00+30nnw2339100 0.0 1015683
21:00+25sse1153100 0.0 101615
22 june, tue
tue2200:00+20ese11696 0.0 101712
03:00+19sw22670 0.0 101718
06:00+23wsw24550 0.0 1017213
09:00+29wsw354020 0.0 1017782
12:00+33wsw472936 0.0 10162891
15:00+32wnw363162 0.0 10162075
18:00+31sw35374 0.0 1015599
21:00+24ese246248 0.4 101662
23 june, wed
wed2300:00+20nne11805 0.3 101712
03:00+18w11855 0.3 101714
06:00+23w13635 0.0 1018233
09:00+30sw22435 0.0 1017720
12:00+33sw34325 0.0 10161943
15:00+35ssw352651 0.0 10153097
18:00+34sw362928 0.0 10132878
21:00+24sse226191 0.4 101417
24 june, thu
thu2400:00+20ssw2584100 0.6 101480
03:00+19wsw23912 0.7 101461
06:00+23w25785 0.0 1014208
09:00+30w364796 0.0 10141091
12:00+33w473339 0.0 10132333
15:00+34wsw482899 0.0 10113289
18:00+33wnw373324 0.3 10101934
21:00+22nne3868100 0.8 1011279
25 june, fri
fri2500:00+18w2598100 9.7 1012192
03:00+17wnw3897100 9.7 1012492
06:00+16nnw3695100 0.0 1013543
09:00+15n3683100 0.0 1016564
12:00+16nnw4564100 0.0 1018799
15:00+22nnw34430 0.0 10161638
18:00+19n44480 0.0 10171234
21:00+15nne22660 0.0 101716